Time,TemperatureF,DewpointF,PressureIn,WindDirection,WindDirectionDegrees,WindSpeedMPH,WindSpeedGustMPH,Humidity,HourlyPrecipIn,Conditions,Clouds,dailyrainin,SoftwareType,DateUTC
2014-04-19 00:12:00,57.0,54.0,30.08,North,5,3.0,7.0,90,0.00,,,0.88,,2014-04-19 05:12:00,
2014-04-19 00:22:00,57.0,54.0,30.08,North,5,3.0,7.0,89,0.00,,,0.88,,2014-04-19 05:22:00,
2014-04-19 00:43:00,57.0,54.0,30.07,NNW,333,3.0,8.0,89,0.00,,,0.62,,2014-04-19 05:43:00,
2014-04-19 00:52:00,57.0,54.0,30.08,North,5,4.0,9.0,89,0.00,,,0.62,,2014-04-19 05:52:00,
2014-04-19 01:12:00,57.0,53.0,30.08,ENE,71,1.0,7.0,88,0.00,,,0.62,,2014-04-19 06:12:00,
2014-04-19 01:22:00,57.0,53.0,30.09,NNE,27,3.0,6.0,88,0.00,,,0.62,,2014-04-19 06:22:00,
2014-04-19 01:42:00,57.0,53.0,30.07,NE,47,4.0,11.0,88,0.00,,,0.57,,2014-04-19 06:42:00,
2014-04-19 01:52:00,57.0,53.0,30.08,NNE,15,3.0,8.0,88,0.00,,,0.57,,2014-04-19 06:52:00,
2014-04-19 02:12:00,57.0,53.0,30.09,NW,315,2.0,7.0,88,0.00,,,0.57,,2014-04-19 07:12:00,
2014-04-19 02:22:00,57.0,54.0,30.08,North,350,2.0,8.0,89,0.00,,,0.57,,2014-04-19 07:22:00,
2014-04-19 02:53:00,56.0,53.0,30.08,NW,319,3.0,8.0,90,0.00,,,0.54,,2014-04-19 07:53:00,
2014-04-19 03:22:00,56.0,53.0,30.08,NNE,29,2.0,7.0,91,0.00,,,0.54,,2014-04-19 08:22:00,
2014-04-19 03:52:00,55.0,53.0,30.07,NNE,15,2.0,7.0,92,0.00,,,0.43,,2014-04-19 08:52:00,
2014-04-19 04:22:00,55.0,53.0,30.06,NNE,15,4.0,9.0,92,0.00,,,0.43,,2014-04-19 09:22:00,
2014-04-19 04:54:00,55.0,53.0,30.05,North,360,4.0,7.0,93,0.00,,,0.31,,2014-04-19 09:54:00,
2014-04-19 05:23:00,55.0,53.0,30.05,North,360,5.0,12.0,94,0.00,,,0.31,,2014-04-19 10:23:00,
2014-04-19 05:53:00,55.0,53.0,30.06,North,355,4.0,11.0,92,0.00,,,0.25,,2014-04-19 10:53:00,
2014-04-19 06:12:00,55.0,53.0,30.07,North,355,6.0,13.0,92,0.00,,,0.25,,2014-04-19 11:12:00,
2014-04-19 06:22:00,55.0,52.0,30.08,NNW,348,2.0,8.0,91,0.00,,,0.25,,2014-04-19 11:22:00,
2014-04-19 06:52:00,55.0,52.0,30.10,North,360,4.0,7.0,91,0.00,,,0.12,,2014-04-19 11:52:00,
2014-04-19 07:12:00,55.0,52.0,30.11,North,9,4.0,8.0,91,0.00,,,0.12,,2014-04-19 12:12:00,
2014-04-19 07:22:00,55.0,52.0,30.11,ESE,105,2.0,10.0,90,0.00,,,0.12,,2014-04-19 12:22:00,
2014-04-19 07:42:00,56.0,53.0,30.11,NNE,28,4.0,10.0,89,0.00,,,0.08,,2014-04-19 12:42:00,
2014-04-19 07:52:00,56.0,53.0,30.11,North,355,4.0,8.0,90,0.00,,,0.08,,2014-04-19 12:52:00,
2014-04-19 08:12:00,56.0,53.0,30.10,NE,46,3.0,7.0,90,0.00,,,0.08,,2014-04-19 13:12:00,
2014-04-19 08:22:00,57.0,53.0,30.11,NNE,13,3.0,9.0,88,0.00,,,0.08,,2014-04-19 13:22:00,
2014-04-19 08:42:00,57.0,54.0,30.11,NE,34,2.0,9.0,89,0.00,,,0.06,,2014-04-19 13:42:00,
2014-04-19 08:52:00,57.0,53.0,30.11,North,5,5.0,13.0,88,0.00,,,0.06,,2014-04-19 13:52:00,
2014-04-19 09:12:00,58.0,54.0,30.11,ESE,104,4.0,11.0,85,0.00,,,0.06,,2014-04-19 14:12:00,
2014-04-19 09:22:00,60.0,55.0,30.11,North,5,2.0,9.0,84,0.00,,,0.06,,2014-04-19 14:22:00,
2014-04-19 09:42:00,61.0,55.0,30.11,NE,39,2.0,10.0,81,0.00,,,0.06,,2014-04-19 14:42:00,
2014-04-19 09:52:00,63.0,55.0,30.12,ENE,75,3.0,14.0,76,0.00,,,0.06,,2014-04-19 14:52:00,
2014-04-19 10:22:00,65.0,55.0,30.12,North,5,7.0,15.0,70,0.00,,,0.01,,2014-04-19 15:22:00,
2014-04-19 10:43:00,66.0,56.0,30.12,NNW,342,6.0,14.0,70,0.00,,,0.01,,2014-04-19 15:43:00,
2014-04-19 10:54:00,67.0,56.0,30.12,East,92,3.0,9.0,68,0.00,,,0.01,,2014-04-19 15:54:00,
2014-04-19 11:13:00,67.0,55.0,30.12,North,11,5.0,13.0,66,0.00,,,0.01,,2014-04-19 16:13:00,
2014-04-19 11:23:00,68.0,57.0,30.11,NNW,340,5.0,10.0,67,0.00,,,0.00,,2014-04-19 16:23:00,
2014-04-19 11:43:00,68.0,55.0,30.10,NW,322,5.0,13.0,64,0.00,,,0.00,,2014-04-19 16:43:00,
2014-04-19 11:53:00,69.0,55.0,30.10,North,355,5.0,12.0,62,0.00,,,0.00,,2014-04-19 16:53:00,
2014-04-19 12:12:00,70.0,56.0,30.09,NNW,336,5.0,10.0,61,0.00,,,0.00,,2014-04-19 17:12:00,
2014-04-19 12:22:00,70.0,54.0,30.09,NNE,24,5.0,13.0,57,0.00,,,0.00,,2014-04-19 17:22:00,
2014-04-19 12:42:00,71.0,55.0,30.09,NNE,21,4.0,14.0,58,0.00,,,0.00,,2014-04-19 17:42:00,
2014-04-19 12:52:00,72.0,54.0,30.08,NNW,347,6.0,16.0,54,0.00,,,0.00,,2014-04-19 17:52:00,
2014-04-19 13:12:00,72.0,53.0,30.07,North,5,5.0,17.0,52,0.00,,,0.00,,2014-04-19 18:12:00,
2014-04-19 13:22:00,73.0,54.0,30.07,NW,323,4.0,12.0,51,0.00,,,0.00,,2014-04-19 18:22:00,
2014-04-19 13:42:00,73.0,54.0,30.06,NE,53,5.0,15.0,51,0.00,,,0.00,,2014-04-19 18:42:00,
2014-04-19 13:52:00,74.0,54.0,30.06,NE,54,3.0,19.0,49,0.00,,,0.00,,2014-04-19 18:52:00,
2014-04-19 14:12:00,74.0,54.0,30.06,NNW,345,8.0,18.0,50,0.00,,,0.00,,2014-04-19 19:12:00,
2014-04-19 14:22:00,75.0,54.0,30.06,NW,318,6.0,13.0,48,0.00,,,0.00,,2014-04-19 19:22:00,
2014-04-19 14:42:00,75.0,54.0,30.06,NNE,12,6.0,15.0,48,0.00,,,0.00,,2014-04-19 19:42:00,
2014-04-19 14:52:00,76.0,54.0,30.05,NNW,346,6.0,16.0,47,0.00,,,0.00,,2014-04-19 19:52:00,
2014-04-19 15:12:00,76.0,54.0,30.05,North,360,6.0,14.0,46,0.00,,,0.00,,2014-04-19 20:12:00,
2014-04-19 15:22:00,76.0,54.0,30.04,North,360,6.0,13.0,46,0.00,,,0.00,,2014-04-19 20:22:00,
2014-04-19 15:42:00,77.0,53.0,30.03,NNE,21,5.0,11.0,44,0.00,,,0.00,,2014-04-19 20:42:00,
2014-04-19 15:52:00,77.0,53.0,30.03,NNW,348,7.0,14.0,43,0.00,,,0.00,,2014-04-19 20:52:00,
2014-04-19 16:12:00,77.0,53.0,30.03,North,360,5.0,14.0,43,0.00,,,0.00,,2014-04-19 21:12:00,